Wind_Speed
6 7 11 18 19 20 13 17 21 21 18 16 22 22 19 28 32 34 35 26 20 15 15 14 17 16 14 12 13 16 19 22 28 33 38 44 51 52 55 56 55 53 52 51
4 11 17 10 6 11 16 18 21 21 16 4 18 22 26 22 26 28 24 20 16 9 10 17 23 24 17 14 12 16 19 20 23 28 32 36 41 46 49 52 56 56 55 54
17 11 5 8 12 16 17 15 20 21 17 14 13 13 3 7 17 17 14 10 3 8 15 20 22 27 32 30 24 19 17 20 21 23 26 30 36 39 40 44 49 53 54 55
9 4 6 6 12 13 17 12 15 14 7 9 8 11 11 13 14 7 5 5 14 16 21 23 26 28 28 29 31 27 19 13 13 16 22 26 27 31 35 40 41 46 50 53
4 4 4 7 8 5 7 3 2 2 7 10 4 7 4 2 5 4 8 13 17 21 20 20 22 24 28 30 32 30 27 19 12 9 11 18 23 24 24 30 33 34 37 45
16 1 4 5 4 5 1 5 3 1 4 8 8 7 3 3 1 3 12 16 17 17 18 21 25 28 32 30 27 26 26 24 21 16 12 13 15 19 24 29 32 32 32 32
3 5 3 4 5 3 5 5 8 7 6 10 5 5 7 11 5 8 13 15 15 18 24 27 31 31 29 29 28 28 26 24 21 18 15 12 12 14 19 23 27 29 31 32
9 18 8 8 8 10 10 9 8 7 12 17 6 13 10 9 14 17 20 19 20 19 20 23 25 27 28 28 28 26 26 26 25 21 18 16 15 14 16 17 20 24 28 30
12 17 2 4 1 4 6 8 6 7 10 10 16 24 11 7 8 12 14 15 15 15 18 20 20 23 24 26 27 27 25 25 26 26 24 23 20 17 17 17 18 20 23 27
4 10 3 1 0 5 6 3 8 5 7 17 13 18 13 9 5 5 8 12 14 15 16 17 17 19 21 21 22 23 23 24 24 25 26 26 26 24 21 18 18 19 20 21
4 6 10 4 7 17 7 6 8 6 5 5 5 11 4 8 7 6 7 9 12 14 15 14 14 16 19 21 21 22 25 27 26 25 25 24 25 25 24 24 21 20 21 21
12 5 10 25 19 5 4 14 15 11 8 10 12 15 7 10 8 8 6 5 6 9 11 12 12 15 18 21 23 24 24 24 26 26 24 24 23 23 26 27 25 24 21 22
2 4 5 5 7 2 5 8 14 12 6 20 18 6 7 10 8 7 6 5 2 6 9 11 11 13 16 20 23 24 26 27 24 24 26 25 24 24 25 26 27 28 26 25
1 4 14 17 20 15 10 9 5 4 5 7 8 10 12 16 11 1 2 2 1 2 6 9 13 16 19 21 23 26 27 28 30 29 26 28 29 27 25 25 27 27 27 27
4 7 13 17 20 20 19 19 23 21 20 12 19 20 25 23 12 2 2 1 2 3 6 8 10 13 18 20 22 23 24 27 30 32 32 31 29 31 31 30 28 28 27 27
2 11 15 20 16 13 13 18 23 23 23 24 25 26 11 1 2 3 5 7 9 7 9 11 11 12 14 19 22 23 24 25 27 28 30 33 37 36 32 33 33 33 33 32
7 9 12 21 18 19 16 21 23 24 25 23 22 12 5 1 6 9 9 13 14 11 12 15 17 17 18 24 25 26 27 28 27 27 29 33 35 39 42 38 36 37 37 37
13 13 9 13 8 21 14 8 11 15 12 1 5 4 3 3 10 13 14 18 18 15 14 17 21 23 23 29 30 30 32 32 31 31 32 34 36 39 41 43 44 41 41 42
20 15 10 14 18 22 25 21 20 15 18 8 9 3 5 7 9 17 14 18 19 19 19 23 28 32 34 36 35 36 39 39 39 39 40 39 39 41 41 43 46 49 49 47
8 14 10 4 8 14 8 1 2 2 6 9 3 5 9 8 9 12 20 15 17 22 29 31 30 36 40 39 38 43 46 48 48 47 45 45 44 43 45 45 45 48 52 54
2 3 12 13 14 11 4 5 5 6 4 8 11 16 14 9 17 23 21 19 22 26 31 35 35 40 42 40 43 47 49 50 45 47 50 51 52 53 53 53 50 50 52 56
6 5 4 1 3 10 4 7 6 2 15 17 17 19 18 18 20 19 21 23 25 25 29 31 35 41 42 44 44 48 52 49 46 46 50 52 57 61 61 62 61 58 56 56
7 10 5 8 8 6 6 11 17 25 27 28 24 22 18 19 20 20 21 21 22 24 28 34 38 43 45 46 46 47 53 47 52 58 61 59 57 57 59 60 61 58 60 57
14 18 11 11 19 23 32 34 34 35 29 29 25 22 22 19 18 21 20 22 25 28 33 36 40 44 48 51 53 51 53 52 53 58 60 57 51 50 48 48 46 43 46 48
14 5 10 14 20 26 31 34 36 35 32 26 23 22 20 19 19 20 22 26 27 29 32 34 39 45 51 52 53 51 50 50 51 51 49 46 43 43 42 41 41 40 41 40
22 19 11 14 26 23 30 31 29 24 23 22 22 21 20 19 20 22 24 25 28 30 34 39 42 45 47 46 47 47 44 42 41 43 41 40 41 42 42 41 44 40 39 40
Wind_Direction
176 203 217 236 231 248 284 271 275 277 285 291 287 295 294 286 280 280 282 293 292 310 332 3 8 350 328 307 286 281 272 268 260 253 244 240 242 241 239 240 240 238 236 234
167 235 236 265 277 256 261 271 276 279 278 283 286 295 292 283 275 272 284 293 301 335 47 33 34 33 20 359 321 290 278 271 265 259 257 250 245 244 245 242 241 239 238 236
241 267 244 219 249 258 256 263 269 280 306 280 296 279 258 295 277 300 286 276 348 60 34 22 23 31 33 29 14 347 305 286 276 265 256 250 243 244 246 246 245 242 239 239
254 296 237 225 250 254 274 280 270 285 302 290 6 295 301 274 284 324 36 88 97 53 33 32 35 34 32 32 28 16 352 312 298 290 269 256 258 254 254 256 256 255 248 243
260 190 163 207 235 187 272 8 298 284 285 304 268 266 307 241 250 174 22 75 57 34 34 35 38 33 35 33 28 28 18 2 353 327 290 281 275 265 261 261 261 264 262 251
263 316 219 223 165 200 319 277 246 218 285 267 309 233 359 266 212 94 91 77 52 40 35 37 41 34 31 30 30 31 37 29 22 18 355 323 298 283 274 277 273 271 268 262
214 219 223 204 220 161 184 264 297 281 237 266 65 296 280 282 5 25 82 69 49 44 35 31 28 28 28 26 30 30 28 28 26 23 15 360 339 312 296 290 284 281 276 270
287 285 200 179 228 264 198 206 220 259 270 285 301 265 255 235 87 66 57 45 37 36 40 35 30 26 24 23 23 26 28 26 24 21 15 2 350 328 309 300 293 288 286 282
298 274 99 236 142 224 163 218 277 266 261 277 270 270 255 238 70 63 60 59 51 38 36 34 31 28 21 16 17 16 15 16 17 17 18 15 1 342 325 313 302 296 291 285
1 297 262 260 121 217 229 309 255 227 257 248 248 258 252 166 126 87 65 40 29 30 27 23 18 13 11 10 8 7 9 10 10 5 7 8 7 2 346 327 313 299 291 286
205 202 274 290 232 264 234 233 228 267 258 261 252 242 292 150 127 104 48 33 20 17 14 9 8 3 357 355 359 1 356 358 357 358 360 355 352 353 356 357 341 319 302 290
262 259 250 271 283 282 281 264 257 248 243 227 249 255 96 114 129 119 103 57 27 24 10 3 3 0 360 357 357 357 359 357 357 357 353 351 348 345 345 346 348 347 328 303
37 266 275 273 240 142 221 260 255 272 296 252 250 242 116 124 127 124 128 124 99 359 1 359 356 359 2 359 355 353 352 350 351 350 348 346 343 344 341 338 338 337 335 333
27 247 250 262 272 304 275 258 286 267 264 308 272 292 286 275 289 106 153 109 105 9 351 3 359 354 352 350 345 343 345 346 347 347 347 343 341 342 338 334 331 327 327 328
225 257 266 272 269 273 262 263 266 265 271 269 283 283 282 290 316 286 343 289 266 305 329 347 341 340 341 337 334 333 334 332 332 335 339 340 339 336 335 333 332 327 320 319
260 270 280 270 272 259 264 265 263 266 268 264 265 268 294 43 355 283 316 321 282 296 336 339 330 319 317 328 325 323 321 321 320 322 325 327 329 330 333 333 330 326 325 324
268 276 271 269 276 285 267 248 261 266 265 268 272 290 60 12 307 303 301 309 294 287 322 331 330 320 309 318 320 317 313 313 313 313 316 318 319 320 323 327 327 328 327 323
248 253 257 267 267 256 267 277 269 275 289 63 117 129 179 307 307 293 288 289 285 271 300 317 322 318 311 311 312 314 314 308 305 302 304 308 308 309 313 316 318 320 320 321
234 252 261 257 259 278 282 279 270 251 275 167 145 185 259 286 293 295 294 298 286 272 281 302 318 319 314 314 312 312 312 311 307 303 302 302 301 301 301 303 307 310 312 312
222 230 244 227 257 265 300 38 58 117 266 183 182 282 288 272 282 296 311 294 293 287 283 292 306 313 311 311 310 310 310 311 309 308 304 303 300 298 297 297 297 300 303 305
256 215 237 247 261 270 239 143 140 234 288 195 272 277 273 249 267 289 292 291 297 300 290 289 295 305 307 308 312 309 309 307 309 306 304 301 299 299 296 295 293 293 294 296
252 252 210 186 244 269 134 122 222 254 295 293 293 287 283 277 283 284 293 298 299 294 293 294 301 303 303 305 306 306 305 308 305 302 301 300 299 298 296 295 293 291 291 289
252 221 252 215 251 276 225 246 241 289 288 289 293 295 288 282 282 287 292 294 289 292 295 299 301 302 303 305 308 306 305 304 301 299 298 298 297 295 295 293 292 292 289 287
257 253 246 264 256 260 267 268 272 278 280 284 285 290 291 280 286 291 293 292 294 299 303 304 305 306 306 307 306 304 303 302 299 297 296 295 294 293 290 288 287 284 283 283
245 198 233 251 262 273 266 264 267 271 279 280 283 280 280 283 289 292 294 298 302 304 305 306 308 308 307 309 308 307 307 306 303 300 297 296 294 293 291 287 284 280 277 273
240 238 239 250 263 261 269 272 275 277 271 266 270 275 280 286 291 296 300 303 304 306 309 311 313 312 312 311 311 313 314 313 310 306 301 298 296 294 292 290 289 285 278 275
Height
1531 1530 1527 1519 1519 1514 1519 1517 1514 1508 1507 1509 1497 1492 1492 1488 1481 1474 1470 1473 1471 1471 1468 1465 1464 1461 1459 1456 1453 1452 1452 1454 1455 1455 1455 1457 1459 1462 1465 1467 1470 1474 1477 1481
1532 1525 1519 1519 1522 1523 1519 1518 1512 1503 1502 1507 1495 1490 1483 1478 1473 1467 1466 1467 1470 1469 1466 1464 1461 1459 1456 1452 1449 1447 1445 1447 1447 1449 1450 1450 1451 1454 1459 1462 1464 1467 1469 1473
1518 1513 1518 1522 1521 1519 1514 1517 1504 1504 1502 1499 1498 1481 1479 1470 1465 1464 1463 1462 1467 1469 1468 1465 1462 1456 1452 1448 1447 1444 1442 1441 1442 1444 1445 1445 1445 1446 1448 1453 1457 1460 1465 1468
1520 1517 1518 1519 1518 1516 1515 1505 1509 1509 1510 1499 1501 1482 1474 1465 1461 1461 1458 1463 1466 1468 1468 1463 1458 1454 1452 1449 1447 1441 1441 1438 1437 1439 1442 1443 1445 1444 1444 1445 1449 1453 1459 1464
1510 1514 1517 1519 1513 1515 1508 1510 1510 1511 1508 1508 1495 1501 1464 1465 1463 1461 1463 1464 1469 1469 1468 1465 1461 1460 1455 1450 1440 1442 1442 1440 1437 1436 1436 1439 1442 1444 1444 1441 1441 1444 1447 1454
1512 1515 1513 1506 1508 1511 1513 1511 1509 1510 1507 1499 1480 1488 1467 1462 1461 1461 1468 1472 1472 1472 1471 1465 1459 1454 1448 1448 1448 1447 1442 1441 1441 1438 1437 1437 1437 1439 1440 1441 1441 1439 1439 1442
1506 1507 1508 1507 1507 1509 1509 1511 1506 1504 1500 1486 1488 1490 1477 1466 1467 1470 1470 1473 1473 1471 1465 1461 1456 1455 1450 1450 1450 1448 1446 1443 1441 1439 1437 1436 1435 1435 1435 1437 1437 1436 1436 1436
1505 1496 1501 1502 1496 1490 1502 1498 1501 1512 1498 1485 1491 1475 1462 1460 1469 1469 1465 1464 1466 1467 1464 1464 1462 1458 1458 1458 1454 1450 1447 1446 1444 1440 1437 1435 1432 1433 1433 1431 1430 1430 1431 1432
1501 1490 1497 1498 1496 1496 1498 1500 1492 1496 1498 1497 1473 1459 1457 1458 1468 1472 1474 1473 1472 1473 1467 1463 1464 1464 1461 1459 1456 1453 1450 1447 1445 1442 1437 1433 1430 1431 1430 1428 1426 1425 1425 1426
1511 1509 1497 1496 1497 1495 1496 1492 1496 1497 1498 1487 1469 1460 1452 1460 1468 1474 1474 1474 1473 1468 1468 1468 1467 1466 1464 1463 1457 1456 1453 1447 1444 1444 1437 1433 1433 1431 1430 1426 1424 1421 1419 1419
1509 1517 1496 1498 1493 1487 1492 1493 1494 1492 1488 1486 1474 1452 1441 1453 1462 1470 1473 1471 1472 1469 1468 1469 1468 1466 1465 1462 1459 1454 1450 1447 1443 1436 1433 1435 1433 1430 1427 1425 1421 1418 1414 1413
1504 1502 1500 1484 1481 1486 1487 1486 1481 1482 1479 1471 1466 1454 1460 1465 1471 1474 1478 1476 1475 1473 1471 1470 1467 1464 1462 1459 1456 1452 1449 1446 1442 1440 1436 1433 1431 1427 1424 1422 1419 1416 1412 1410
1506 1504 1492 1487 1478 1488 1488 1482 1479 1475 1478 1469 1461 1455 1467 1471 1472 1471 1472 1473 1474 1474 1471 1467 1466 1464 1459 1456 1453 1451 1447 1444 1442 1436 1434 1432 1427 1424 1420 1417 1416 1412 1409 1407
1507 1502 1499 1492 1479 1484 1490 1487 1487 1486 1474 1468 1466 1461 1462 1458 1458 1467 1469 1468 1468 1471 1471 1466 1463 1461 1457 1454 1452 1448 1445 1443 1438 1434 1429 1426 1425 1420 1418 1415 1412 1410 1406 1403
1505 1496 1492 1486 1484 1483 1482 1483 1479 1475 1475 1478 1464 1464 1456 1455 1458 1463 1465 1465 1466 1467 1466 1461 1460 1458 1455 1453 1450 1447 1444 1441 1436 1431 1425 1422 1422 1420 1415 1412 1407 1407 1402 1396
1501 1493 1490 1485 1482 1483 1483 1480 1473 1470 1468 1462 1458 1452 1452 1462 1462 1464 1463 1462 1462 1461 1458 1457 1456 1454 1452 1451 1448 1445 1442 1441 1436 1430 1424 1419 1413 1413 1411 1405 1402 1400 1396 1391
1501 1495 1493 1482 1480 1478 1476 1467 1464 1458 1452 1450 1447 1450 1462 1464 1463 1461 1460 1459 1456 1454 1453 1452 1451 1450 1448 1445 1442 1439 1437 1433 1427 1422 1418 1415 1412 1408 1401 1396 1396 1392 1388 1385
1494 1493 1491 1478 1485 1474 1450 1455 1457 1454 1454 1459 1460 1463 1463 1463 1461 1459 1459 1455 1453 1452 1450 1449 1446 1444 1442 1439 1435 1431 1428 1425 1422 1418 1415 1411 1407 1402 1395 1390 1386 1383 1381 1377
1487 1486 1482 1479 1470 1452 1452 1454 1452 1451 1445 1458 1459 1461 1461 1460 1459 1454 1454 1451 1449 1448 1446 1443 1441 1437 1434 1430 1426 1422 1419 1416 1412 1408 1404 1401 1396 1391 1388 1383 1377 1372 1368 1367
1481 1483 1484 1483 1475 1462 1448 1456 1457 1456 1451 1458 1459 1459 1459 1458 1454 1448 1450 1448 1446 1444 1441 1437 1434 1431 1427 1423 1419 1413 1408 1403 1399 1396 1392 1388 1385 1381 1375 1372 1368 1364 1359 1353
1481 1484 1476 1468 1464 1454 1453 1456 1458 1460 1453 1454 1455 1454 1453 1452 1449 1445 1443 1442 1440 1438 1435 1432 1428 1424 1420 1415 1410 1403 1399 1393 1389 1383 1379 1375 1371 1366 1363 1358 1357 1353 1348 1342
1471 1471 1477 1488 1479 1465 1454 1457 1457 1447 1447 1449 1448 1446 1445 1444 1442 1440 1438 1435 1433 1431 1428 1425 1420 1416 1411 1408 1402 1395 1389 1384 1378 1372 1366 1361 1356 1351 1347 1342 1338 1337 1334 1330
1470 1461 1462 1467 1456 1448 1452 1449 1445 1444 1443 1441 1440 1438 1438 1436 1435 1433 1431 1430 1426 1424 1421 1417 1412 1406 1401 1397 1392 1384 1377 1372 1364 1357 1351 1345 1340 1335 1330 1326 1320 1317 1316 1313
1454 1456 1457 1458 1445 1445 1444 1442 1440 1437 1435 1434 1433 1432 1431 1429 1428 1425 1423 1422 1419 1416 1412 1407 1402 1396 1389 1385 1380 1374 1366 1359 1351 1343 1335 1330 1325 1319 1315 1310 1306 1303 1299 1297
1443 1450 1446 1445 1439 1437 1434 1433 1431 1429 1428 1427 1426 1425 1424 1422 1420 1418 1416 1414 1411 1408 1404 1399 1394 1387 1379 1373 1365 1360 1354 1346 1337 1329 1322 1316 1311 1305 1299 1295 1291 1287 1284 1284
1435 1433 1435 1430 1427 1427 1421 1423 1424 1423 1421 1420 1419 1418 1416 1415 1414 1411 1409 1407 1403 1399 1395 1389 1383 1376 1369 1362 1353 1347 1341 1333 1325 1316 1311 1306 1300 1293 1286 1279 1271 1271 1269 1266